Tracking 20083 objects as of 8-Dec-2019
HD Live streaming from Space Station
objects crossing your sky now

GORIZONT 2

Track GORIZONT 2 now!
GORIZONT 2 is classified as:


NORAD ID: 11440
Int'l Code: 1979-062A
Perigee: 35,779.7 km
Apogee: 35,827.0 km
Inclination: 11.3 °
Period: 1,436.6 minutes
Semi major axis: 42174 km
RCS: 3.981 m2 (large)
Launch date: July 5, 1979
Source: Commonwealth of Independent States (former USSR) (CIS)
Launch site: TYURATAM MISSILE AND SPACE COMPLEX (TTMTR)
aabbcc
Your satellite tracking list
Your tracking list is empty




NASA's NSSDC Master Catalog

Two Line Element Set (TLE):
1 11440U 79062A   19341.92896858 -.00000104 +00000-0 +00000-0 0  9993
2 11440 011.2945 312.8528 0005609 313.2545 222.1315 01.00237383114128
Source of the keplerian elements: AFSPC